| time (UTC) | temp F | wind direction | speed MPH | gust MPH | rain 1hr in | rain 24hr in | rain mn in | humidity % | barometer mb |
| 20260509104820 | 72 | 70 | 0.0 | 2.0 | 0.00 | 0.00 | 0.00 | 32 | 1009.7 |
| 20260509103815 | 73 | 77 | 0.0 | 2.0 | 0.00 | 0.00 | 0.00 | 33 | 1009.7 |
| 20260509102832 | 73 | 37 | 0.0 | 4.0 | 0.00 | 0.00 | 0.00 | 33 | 1009.7 |
| 20260509101831 | 73 | 110 | 0.0 | 2.0 | 0.00 | 0.00 | 0.00 | 34 | 1009.6 |
| 20260509100825 | 73 | 170 | 0.0 | 0.0 | 0.00 | 0.00 | 0.00 | 35 | 1009.6 |
| 20260509095820 | 73 | 88 | 0.0 | 0.0 | 0.00 | 0.00 | 0.00 | 34 | 1009.6 |
| 20260509094816 | 74 | 85 | 0.0 | 1.0 | 0.00 | 0.00 | 0.00 | 34 | 1009.6 |
| 20260509093831 | 75 | 61 | 0.0 | 2.0 | 0.00 | 0.00 | 0.00 | 33 | 1009.6 |
| 20260509092832 | 75 | 31 | 0.0 | 1.0 | 0.00 | 0.00 | 0.00 | 33 | 1009.6 |
| 20260509091847 | 75 | 57 | 0.0 | 0.0 | 0.00 | 0.00 | 0.00 | 32 | 1009.7 |
| 20260509090821 | 75 | 57 | 0.0 | 0.0 | 0.00 | 0.00 | 0.00 | 32 | 1009.7 |
| 20260509085817 | 75 | 57 | 0.0 | 0.0 | 0.00 | 0.00 | 0.00 | 32 | 1009.7 |
| 20260509084832 | 76 | 57 | 0.0 | 0.0 | 0.00 | 0.00 | 0.00 | 32 | 1009.6 |
| 20260509083831 | 76 | 57 | 0.0 | 0.0 | 0.00 | 0.00 | 0.00 | 31 | 1009.5 |
| 20260509082827 | 76 | 143 | 0.0 | 0.0 | 0.00 | 0.00 | 0.00 | 31 | 1009.6 |
| 20260509081825 | 77 | 82 | 0.0 | 0.0 | 0.00 | 0.00 | 0.00 | 31 | 1009.6 |
| 20260509080820 | 78 | 53 | 0.0 | 0.0 | 0.00 | 0.00 | 0.00 | 29 | 1009.5 |
| 20260509075819 | 78 | 52 | 0.0 | 0.0 | 0.00 | 0.00 | 0.00 | 29 | 1009.5 |
| 20260509074815 | 79 | 52 | 0.0 | 1.0 | 0.00 | 0.00 | 0.00 | 29 | 1009.4 |
| 20260509073850 | 79 | 53 | 0.0 | 2.0 | 0.00 | 0.00 | 0.00 | 28 | 1009.5 |
| 20260509072825 | 79 | 46 | 0.0 | 1.0 | 0.00 | 0.00 | 0.00 | 27 | 1009.5 |
| 20260509071822 | 79 | 51 | 1.0 | 2.0 | 0.00 | 0.00 | 0.00 | 27 | 1009.4 |
| 20260509070818 | 79 | 44 | 0.0 | 0.0 | 0.00 | 0.00 | 0.00 | 28 | 1009.4 |
| 20260509065819 | 79 | 183 | 0.0 | 0.0 | 0.00 | 0.00 | 0.00 | 29 | 1009.3 |
| 20260509064815 | 79 | 184 | 0.0 | 0.0 | 0.00 | 0.00 | 0.00 | 27 | 1009.3 |
| 20260509063830 | 80 | 184 | 0.0 | 0.0 | 0.00 | 0.00 | 0.00 | 26 | 1009.2 |
| 20260509062827 | 81 | 184 | 0.0 | 0.0 | 0.00 | 0.00 | 0.00 | 25 | 1009.3 |
| 20260509061825 | 81 | 186 | 0.0 | 0.0 | 0.00 | 0.00 | 0.00 | 25 | 1009.2 |
| 20260509060822 | 82 | 186 | 0.0 | 0.0 | 0.00 | 0.00 | 0.00 | 24 | 1009.2 |
| 20260509055818 | 81 | 186 | 0.0 | 0.0 | 0.00 | 0.00 | 0.00 | 24 | 1009.1 |
| 20260509054814 | 83 | 186 | 0.0 | 0.0 | 0.00 | 0.00 | 0.00 | 23 | 1009.1 |
| 20260509053831 | 84 | 186 | 0.0 | 0.0 | 0.00 | 0.00 | 0.00 | 22 | 1009.1 |
| 20260509052832 | 85 | 186 | 0.0 | 0.0 | 0.00 | 0.00 | 0.00 | 22 | 1009.1 |
| 20260509051827 | 86 | 186 | 0.0 | 0.0 | 0.00 | 0.00 | 0.00 | 21 | 1009.1 |
| 20260509050821 | 87 | 186 | 0.0 | 1.0 | 0.00 | 0.00 | 0.00 | 20 | 1009.1 |
| 20260509045816 | 88 | 202 | 0.0 | 0.0 | 0.00 | 0.00 | 0.00 | 19 | 1009.0 |
| 20260509044816 | 89 | 200 | 0.0 | 2.0 | 0.00 | 0.00 | 0.00 | 19 | 1009.0 |
| 20260509043813 | 89 | 206 | 0.0 | 1.0 | 0.00 | 0.00 | 0.00 | 19 | 1008.9 |
| 20260509042828 | 89 | 204 | 1.0 | 3.0 | 0.00 | 0.00 | 0.00 | 19 | 1008.8 |
| 20260509041824 | 90 | 206 | 0.0 | 2.0 | 0.00 | 0.00 | 0.00 | 18 | 1008.8 |
| 20260509040818 | 90 | 212 | 1.0 | 4.0 | 0.00 | 0.00 | 0.00 | 18 | 1008.7 |
| 20260509035817 | 90 | 210 | 1.0 | 3.0 | 0.00 | 0.00 | 0.00 | 18 | 1008.4 |
| 20260509034812 | 90 | 210 | 1.0 | 3.0 | 0.00 | 0.00 | 0.00 | 17 | 1008.3 |
| 20260509033828 | 90 | 197 | 0.0 | 1.0 | 0.00 | 0.00 | 0.00 | 18 | 1008.2 |
| 20260509032826 | 90 | 200 | 0.0 | 1.0 | 0.00 | 0.00 | 0.00 | 18 | 1008.0 |
| 20260509031818 | 91 | 200 | 0.0 | 0.0 | 0.00 | 0.00 | 0.00 | 16 | 1008.0 |
| 20260509030815 | 92 | 200 | 0.0 | 1.0 | 0.00 | 0.00 | 0.00 | 16 | 1007.8 |
| 20260509025828 | 93 | 205 | 0.0 | 1.0 | 0.00 | 0.00 | 0.00 | 16 | 1007.7 |
| 20260509024820 | 93 | 213 | 0.0 | 0.0 | 0.00 | 0.00 | 0.00 | 15 | 1007.7 |
| 20260509023812 | 94 | 206 | 0.0 | 1.0 | 0.00 | 0.00 | 0.00 | 15 | 1007.6 |
| 20260509022825 | 95 | 209 | 1.0 | 5.0 | 0.00 | 0.00 | 0.00 | 14 | 1007.5 |
| 20260509021823 | 96 | 227 | 1.0 | 7.0 | 0.00 | 0.00 | 0.00 | 14 | 1007.4 |
| 20260509020817 | 96 | 223 | 3.0 | 7.0 | 0.00 | 0.00 | 0.00 | 13 | 1007.3 |
| 20260509015829 | 97 | 237 | 3.0 | 9.0 | 0.00 | 0.00 | 0.00 | 13 | 1007.3 |
| 20260509014823 | 97 | 229 | 2.0 | 9.0 | 0.00 | 0.00 | 0.00 | 13 | 1007.3 |
| 20260509013815 | 98 | 219 | 5.0 | 9.0 | 0.00 | 0.00 | 0.00 | 13 | 1007.1 |
| 20260509012830 | 98 | 227 | 3.0 | 14.0 | 0.00 | 0.00 | 0.00 | 13 | 1007.3 |
| 20260509011825 | 99 | 239 | 5.0 | 12.0 | 0.00 | 0.00 | 0.00 | 13 | 1007.3 |
| 20260509010816 | 99 | 227 | 6.0 | 10.0 | 0.00 | 0.00 | 0.00 | 13 | 1007.3 |
| 20260509005829 | 99 | 235 | 4.0 | 11.0 | 0.00 | 0.00 | 0.00 | 13 | 1007.4 |
| 20260509004824 | 99 | 222 | 4.0 | 11.0 | 0.00 | 0.00 | 0.00 | 13 | 1007.5 |
| 20260509003820 | 99 | 227 | 4.0 | 10.0 | 0.00 | 0.00 | 0.00 | 13 | 1007.6 |
| 20260509002812 | 99 | 270 | 3.0 | 11.0 | 0.00 | 0.00 | 0.00 | 13 | 1007.7 |
| 20260509001825 | 99 | 225 | 2.0 | 13.0 | 0.00 | 0.00 | 0.00 | 13 | 1007.7 |
| 20260509000837 | 99 | 235 | 5.0 | 10.0 | 0.00 | 0.00 | 0.00 | 14 | 1007.8 |
| 20260508235828 | 100 | 222 | 3.0 | 9.0 | 0.00 | 0.00 | 0.00 | 13 | 1007.8 |
| 20260508234822 | 99 | 233 | 6.0 | 14.0 | 0.00 | 0.00 | 0.00 | 13 | 1007.9 |
| 20260508233820 | 99 | 216 | 6.0 | 15.0 | 0.00 | 0.00 | 0.00 | 12 | 1008.0 |
| 20260508232832 | 99 | 235 | 5.0 | 13.0 | 0.00 | 0.00 | 0.00 | 13 | 1008.0 |
| 20260508231823 | 100 | 239 | 4.0 | 12.0 | 0.00 | 0.00 | 0.00 | 12 | 1008.1 |
| 20260508230816 | 99 | 214 | 6.0 | 17.0 | 0.00 | 0.00 | 0.00 | 13 | 1008.2 |
| 20260508225829 | 99 | 239 | 7.0 | 16.0 | 0.00 | 0.00 | 0.00 | 13 | 1008.2 |
| 20260508224826 | 99 | 234 | 5.0 | 14.0 | 0.00 | 0.00 | 0.00 | 13 | 1008.3 |
| 20260508223818 | 99 | 243 | 7.0 | 15.0 | 0.00 | 0.00 | 0.00 | 13 | 1008.4 |
| 20260508222830 | 99 | 212 | 5.0 | 13.0 | 0.00 | 0.00 | 0.00 | 14 | 1008.5 |
| 20260508221824 | 99 | 238 | 4.0 | 13.0 | 0.00 | 0.00 | 0.00 | 14 | 1008.8 |
| 20260508220818 | 98 | 226 | 5.0 | 12.0 | 0.00 | 0.00 | 0.00 | 15 | 1008.9 |
| 20260508215813 | 97 | 239 | 6.0 | 12.0 | 0.00 | 0.00 | 0.00 | 16 | 1009.1 |
| 20260508214827 | 98 | 236 | 7.0 | 13.0 | 0.00 | 0.00 | 0.00 | 14 | 1009.5 |
| 20260508213821 | 99 | 241 | 3.0 | 12.0 | 0.00 | 0.00 | 0.00 | 15 | 1009.6 |
| 20260508212814 | 98 | 189 | 2.0 | 14.0 | 0.00 | 0.00 | 0.00 | 16 | 1009.8 |
| 20260508211846 | 98 | 211 | 2.0 | 9.0 | 0.00 | 0.00 | 0.00 | 15 | 1009.9 |
| 20260508210824 | 96 | 239 | 4.0 | 7.0 | 0.00 | 0.00 | 0.00 | 17 | 1010.3 |
| 20260508205819 | 96 | 336 | 2.0 | 8.0 | 0.00 | 0.00 | 0.00 | 16 | 1010.3 |
| 20260508204814 | 96 | 212 | 1.0 | 11.0 | 0.00 | 0.00 | 0.00 | 16 | 1010.5 |
| 20260508203826 | 94 | 189 | 2.0 | 10.0 | 0.00 | 0.00 | 0.00 | 17 | 1010.6 |
| 20260508202818 | 95 | 229 | 4.0 | 8.0 | 0.00 | 0.00 | 0.00 | 17 | 1010.7 |
| 20260508201816 | 94 | 230 | 3.0 | 11.0 | 0.00 | 0.00 | 0.00 | 17 | 1010.8 |
| 20260508200828 | 94 | 267 | 3.0 | 9.0 | 0.00 | 0.00 | 0.00 | 17 | 1011.1 |
| 20260508195821 | 93 | 208 | 2.0 | 6.0 | 0.00 | 0.00 | 0.00 | 18 | 1011.2 |
| 20260508194814 | 93 | 342 | 2.0 | 11.0 | 0.00 | 0.00 | 0.00 | 18 | 1011.4 |
| 20260508193826 | 93 | 285 | 1.0 | 7.0 | 0.00 | 0.00 | 0.00 | 17 | 1011.4 |
| 20260508192822 | 92 | 208 | 0.0 | 7.0 | 0.00 | 0.00 | 0.00 | 17 | 1011.7 |
| 20260508191815 | 91 | 227 | 3.0 | 8.0 | 0.00 | 0.00 | 0.00 | 18 | 1011.9 |
| 20260508190829 | 91 | 213 | 1.0 | 7.0 | 0.00 | 0.00 | 0.00 | 19 | 1012.1 |
| 20260508185822 | 91 | 109 | 2.0 | 6.0 | 0.00 | 0.00 | 0.00 | 18 | 1012.2 |
| 20260508184817 | 90 | 136 | 1.0 | 6.0 | 0.00 | 0.00 | 0.00 | 20 | 1012.2 |
| 20260508183815 | 89 | 225 | 2.0 | 5.0 | 0.00 | 0.00 | 0.00 | 20 | 1012.4 |
| 20260508182829 | 90 | 243 | 1.0 | 3.0 | 0.00 | 0.00 | 0.00 | 19 | 1012.5 |
| 20260508181842 | 88 | 210 | 0.0 | 4.0 | 0.00 | 0.00 | 0.00 | 20 | 1012.6 |
| 20260508180813 | 89 | 236 | 2.0 | 4.0 | 0.00 | 0.00 | 0.00 | 21 | 1012.7 |
| 20260508175827 | 88 | 162 | 0.0 | 4.0 | 0.00 | 0.00 | 0.00 | 22 | 1012.8 |
| 20260508174825 | 86 | 232 | 2.0 | 6.0 | 0.00 | 0.00 | 0.00 | 22 | 1012.9 |
| 20260508173818 | 86 | 232 | 1.0 | 6.0 | 0.00 | 0.00 | 0.00 | 23 | 1013.0 |
| 20260508172831 | 86 | 10 | 0.0 | 5.0 | 0.00 | 0.00 | 0.00 | 23 | 1013.1 |
| 20260508171825 | 85 | 126 | 1.0 | 5.0 | 0.00 | 0.00 | 0.00 | 24 | 1013.2 |
| 20260508170819 | 85 | 210 | 0.0 | 4.0 | 0.00 | 0.00 | 0.00 | 24 | 1013.3 |
| 20260508165816 | 84 | 160 | 1.0 | 4.0 | 0.00 | 0.00 | 0.00 | 25 | 1013.4 |
| 20260508164830 | 83 | 169 | 1.0 | 5.0 | 0.00 | 0.00 | 0.00 | 26 | 1013.4 |
| 20260508163824 | 84 | 105 | 2.0 | 5.0 | 0.00 | 0.00 | 0.00 | 25 | 1013.5 |
| 20260508162818 | 83 | 134 | 1.0 | 4.0 | 0.00 | 0.00 | 0.00 | 26 | 1013.5 |
| 20260508161813 | 82 | 170 | 0.0 | 3.0 | 0.00 | 0.00 | 0.00 | 26 | 1013.5 |
| 20260508160831 | 81 | 164 | 1.0 | 5.0 | 0.00 | 0.00 | 0.00 | 27 | 1013.5 |
| 20260508155822 | 80 | 62 | 1.0 | 6.0 | 0.00 | 0.00 | 0.00 | 27 | 1013.5 |
| 20260508154814 | 80 | 62 | 3.0 | 8.0 | 0.00 | 0.00 | 0.00 | 27 | 1013.4 |
| 20260508153826 | 79 | 113 | 2.0 | 5.0 | 0.00 | 0.00 | 0.00 | 27 | 1013.4 |
| 20260508152819 | 79 | 62 | 2.0 | 5.0 | 0.00 | 0.00 | 0.00 | 28 | 1013.5 |
| 20260508151817 | 78 | 79 | 2.0 | 4.0 | 0.00 | 0.00 | 0.00 | 29 | 1013.5 |
| 20260508150828 | 78 | 101 | 2.0 | 4.0 | 0.00 | 0.00 | 0.00 | 29 | 1013.6 |
| 20260508145841 | 77 | 90 | 1.0 | 4.0 | 0.00 | 0.00 | 0.00 | 30 | 1013.6 |
| 20260508144832 | 76 | 79 | 3.0 | 7.0 | 0.00 | 0.00 | 0.00 | 30 | 1013.7 |
| 20260508143847 | 76 | 106 | 2.0 | 6.0 | 0.00 | 0.00 | 0.00 | 31 | 1013.6 |
| 20260508142820 | 75 | 56 | 2.0 | 6.0 | 0.00 | 0.00 | 0.00 | 31 | 1013.5 |
| 20260508141817 | 74 | 66 | 2.0 | 6.0 | 0.00 | 0.00 | 0.00 | 31 | 1013.4 |
| 20260508140830 | 74 | 83 | 2.0 | 7.0 | 0.00 | 0.00 | 0.00 | 32 | 1013.4 |
| 20260508135842 | 73 | 71 | 2.0 | 6.0 | 0.00 | 0.00 | 0.00 | 32 | 1013.5 |
| 20260508134832 | 72 | 141 | 2.0 | 6.0 | 0.00 | 0.00 | 0.00 | 32 | 1013.2 |
| 20260508133823 | 72 | 73 | 2.0 | 6.0 | 0.00 | 0.00 | 0.00 | 32 | 1013.0 |
| 20260508132815 | 71 | 73 | 1.0 | 6.0 | 0.00 | 0.00 | 0.00 | 33 | 1012.9 |
| 20260508131813 | 71 | 101 | 1.0 | 5.0 | 0.00 | 0.00 | 0.00 | 33 | 1012.9 |
| 20260508130825 | 70 | 68 | 2.0 | 6.0 | 0.00 | 0.00 | 0.00 | 33 | 1012.7 |
| 20260508125819 | 70 | 108 | 1.0 | 5.0 | 0.00 | 0.00 | 0.00 | 34 | 1012.5 |
| 20260508124829 | 69 | 85 | 1.0 | 4.0 | 0.00 | 0.00 | 0.00 | 34 | 1012.4 |
| 20260508123821 | 69 | 92 | 2.0 | 7.0 | 0.00 | 0.00 | 0.00 | 34 | 1012.3 |
| 20260508122818 | 69 | 107 | 1.0 | 5.0 | 0.00 | 0.00 | 0.00 | 35 | 1012.1 |
| 20260508121850 | 69 | 64 | 2.0 | 4.0 | 0.00 | 0.00 | 0.00 | 35 | 1012.1 |
| 20260508120821 | 69 | 81 | 2.0 | 4.0 | 0.00 | 0.00 | 0.00 | 35 | 1012.0 |
| 20260508115815 | 69 | 112 | 1.0 | 3.0 | 0.00 | 0.00 | 0.00 | 36 | 1011.9 |
| 20260508114848 | 69 | 73 | 0.0 | 2.0 | 0.00 | 0.00 | 0.00 | 36 | 1012.1 |
| 20260508113821 | 69 | 37 | 1.0 | 3.0 | 0.00 | 0.00 | 0.00 | 35 | 1012.0 |
| 20260508112818 | 69 | 76 | 1.0 | 2.0 | 0.00 | 0.00 | 0.00 | 35 | 1011.9 |
| 20260508111851 | 69 | 137 | 0.0 | 1.0 | 0.00 | 0.00 | 0.00 | 35 | 1011.8 |
| 20260508110824 | 69 | 88 | 0.0 | 2.0 | 0.00 | 0.00 | 0.00 | 35 | 1011.8 |
| 20260508105837 | 70 | 64 | 1.0 | 3.0 | 0.00 | 0.00 | 0.00 | 35 | 1011.8 |